Temp
10 9 9 9 9 9 8 9 9 10 10 11 9 8 6 7 7 7 7 7 7 6 7 7 7 7 7 7 8 9 10 10 10 12 12 13 12 12 12 14 15 14 14 14
8 9 9 9 9 9 9 10 10 10 10 10 10 9 7 7 7 6 6 6 6 6 6 6 6 6 6 6 7 7 7 7 10 10 10 11 11 13 13 13 13 13 13 13
9 9 9 9 9 10 10 10 9 10 10 9 10 9 7 6 6 6 5 5 5 5 5 5 5 5 5 5 5 5 5 6 6 6 6 6 7 8 10 11 12 12 11 12
8 8 10 11 10 11 10 10 10 9 10 9 9 8 7 6 5 5 4 4 4 4 4 4 4 4 4 4 5 5 4 5 5 5 5 6 7 6 7 7 7 7 7 7
8 7 9 10 10 10 10 11 10 9 9 8 8 8 8 6 5 4 4 4 3 3 3 4 3 3 4 3 3 3 3 3 4 5 5 5 5 5 5 7 6 6 7 7
7 7 10 12 10 10 11 11 9 8 9 8 8 8 7 5 4 3 2 2 2 2 2 2 3 3 3 3 3 2 2 3 3 4 5 5 5 5 5 5 5 6 6 5
7 7 8 8 9 9 11 12 8 8 8 7 7 7 5 4 3 3 2 2 3 2 1 2 2 3 2 2 2 3 4 4 4 4 4 3 4 5 5 5 5 4 4 4
6 8 9 7 9 10 10 8 8 7 7 6 5 5 5 4 4 3 2 3 2 2 1 2 3 3 1 1 2 3 4 3 2 2 2 3 3 3 3 3 3 3 3 3
7 8 8 6 10 8 7 8 7 7 6 5 5 4 4 4 3 3 3 3 2 2 2 2 3 3 2 1 3 3 3 3 2 2 1 1 1 1 2 2 2 2 2 2
8 9 6 7 7 7 6 7 7 6 6 5 6 5 5 4 3 3 3 3 3 2 1 1 2 2 2 2 2 3 2 1 1 0 0 -0 -0 0 1 1 1 1 1 2
5 5 6 6 5 6 6 6 6 6 5 5 5 5 5 4 3 3 3 3 3 3 2 2 2 2 2 2 2 2 2 1 1 0 -0 -1 -1 -1 -1 -0 0 0 0 0
8 8 9 9 8 5 6 6 5 5 5 5 5 5 4 3 4 4 3 3 3 3 3 2 2 2 2 2 2 2 2 1 1 1 0 0 0 -1 -1 -1 -2 -1 -1 -1
7 6 5 6 5 4 7 6 5 5 5 5 5 6 5 4 4 4 4 4 3 3 3 2 2 1 1 1 2 1 1 1 1 0 0 0 0 -0 -1 -0 -0 -0 -1 -1
3 4 6 6 7 4 5 6 7 6 7 6 6 6 6 5 5 4 4 5 4 4 3 2 2 1 1 1 1 1 0 0 -0 -0 -1 -1 -1 -1 -1 -1 -1 -1 -1 -2
2 2 5 4 5 5 5 4 4 4 4 4 6 5 5 4 3 4 5 5 4 3 2 2 1 1 1 1 0 0 -0 -1 -1 -1 -1 -1 -1 -2 -2 -2 -3 -2 -2 -1
3 2 2 3 5 4 3 3 4 5 3 4 4 4 5 6 5 5 4 3 2 1 3 2 2 2 1 1 0 -0 -0 -1 -1 -1 -1 -1 -2 -2 -2 -2 -2 -2 -2 -2
2 3 3 3 3 4 3 4 5 6 5 3 4 5 5 4 4 3 3 3 3 3 3 2 2 2 1 1 1 0 0 -0 -1 -0 -1 -1 -1 -2 -2 -2 -2 -3 -3 -3
1 2 3 4 4 3 3 3 4 4 3 5 6 5 4 2 2 3 3 2 1 2 2 3 2 2 2 2 1 1 0 -0 -0 -1 -1 -1 -2 -2 -2 -3 -3 -3 -3 -3
1 1 2 3 3 3 3 3 4 5 5 5 4 3 4 3 3 4 3 2 2 1 4 3 3 2 2 1 1 0 0 -0 -1 -1 -1 -2 -2 -3 -3 -3 -3 -3 -3 -4
1 2 2 3 4 4 3 5 5 4 5 5 5 3 2 3 4 3 3 1 4 4 4 3 3 2 2 2 1 1 0 -0 -1 -2 -2 -2 -3 -3 -3 -3 -3 -3 -4 -4
1 1 1 2 2 4 4 5 4 3 5 4 3 3 3 4 4 3 0 -1 4 4 3 2 2 2 1 1 0 -0 -1 -1 -2 -2 -2 -3 -3 -3 -3 -4 -4 -4 -4 -4
-1 -2 -1 1 1 1 4 4 4 4 3 3 3 3 3 2 2 2 3 3 5 4 3 2 1 1 1 0 -0 -1 -1 -2 -2 -2 -3 -3 -3 -3 -3 -4 -4 -4 -4 -5
-0 1 2 2 1 2 3 3 3 3 3 3 2 2 1 3 2 -0 -0 3 2 2 2 2 1 0 0 -1 -1 -1 -2 -2 -2 -2 -3 -3 -3 -3 -3 -3 -4 -4 -4 -5
1 3 4 5 2 1 -1 4 4 4 3 3 3 3 2 1 1 2 3 4 4 2 1 1 0 0 -0 -1 -1 -2 -2 -2 -2 -3 -3 -3 -3 -4 -4 -4 -4 -4 -5 -5
2 1 1 -0 -1 1 2 3 2 2 1 1 2 2 2 2 2 3 1 2 2 1 0 -0 -0 -1 -1 -1 -2 -2 -2 -2 -2 -3 -3 -3 -4 -4 -4 -4 -5 -5 -5 -6
1 1 1 2 2 2 2 1 -0 1 0 -1 -0 1 1 1 1 2 2 1 0 0 0 -0 -1 -1 -1 -2 -2 -2 -2 -3 -3 -4 -4 -4 -5 -5 -5 -5 -5 -5 -6 -6
1 1 1 -0 0 0 0 0 -1 -0 0 -0 -0 0 1 1 0 1 1 0 -0 -0 -1 -1 -1 -2 -2 -2 -3 -3 -3 -4 -4 -4 -4 -5 -5 -5 -5 -6 -6 -6 -7 -7
Height
809 809 807 806 802 799 806 798 799 784 783 772 777 774 774 766 753 746 741 736 732 724 716 709 700 693 686 680 674 671 680 683 691 691 697 699 701 704 707 711 713 712 719 722
814 804 806 805 800 796 794 790 789 785 781 781 776 776 776 771 763 756 750 744 739 731 724 717 712 704 700 692 681 675 681 684 687 693 697 700 692 691 702 705 713 707 715 720
815 810 808 803 791 787 788 787 789 786 782 781 776 778 783 780 774 769 763 758 750 744 737 731 723 717 711 703 699 696 697 700 701 696 696 695 693 692 698 702 708 713 716 719
819 814 805 780 782 781 784 781 782 785 784 784 783 784 786 787 783 777 773 766 761 756 749 743 735 728 723 716 710 705 702 702 701 700 702 699 695 703 706 709 714 719 724 727
821 821 798 781 781 783 783 776 775 780 782 783 783 783 786 788 788 784 779 775 771 766 760 754 746 742 734 728 725 720 720 717 716 713 712 714 715 717 720 721 725 728 732 735
827 822 795 774 779 778 776 778 776 778 779 782 783 786 789 790 790 788 784 779 774 769 765 759 756 751 742 739 735 735 735 734 732 730 728 728 730 731 732 732 733 735 739 741
820 819 796 781 779 779 779 773 773 776 778 783 785 787 788 790 791 789 787 784 780 775 770 767 762 756 751 751 747 748 746 743 740 739 740 741 741 740 741 742 742 743 744 746
821 813 798 778 780 779 770 771 773 776 777 781 783 786 787 788 788 787 786 785 782 779 777 773 769 765 763 759 760 757 754 752 751 749 748 750 750 750 750 750 751 752 752 753
801 786 771 774 764 767 768 768 770 771 775 777 781 783 784 785 786 785 785 783 783 780 778 775 772 769 767 768 766 763 759 757 756 755 756 756 756 756 757 757 757 758 758 759
788 766 770 768 767 766 767 766 766 768 771 774 776 778 780 782 783 784 783 782 780 779 778 776 773 771 770 770 768 766 763 762 761 759 759 759 759 759 759 762 763 762 763 765
790 771 769 763 762 759 763 763 765 767 769 770 772 774 776 778 779 780 780 780 779 777 777 776 775 774 773 772 771 769 766 766 765 764 764 764 765 766 765 766 767 766 767 767
775 759 755 749 745 750 756 758 760 763 766 767 768 769 771 774 775 776 777 777 777 776 776 776 776 776 775 774 772 770 768 768 767 767 768 768 767 767 767 767 768 768 768 767
762 761 759 753 748 746 747 750 753 757 759 762 763 765 767 769 770 772 773 773 773 774 774 775 775 774 773 772 771 770 769 768 768 769 769 768 767 768 768 769 768 769 768 767
757 759 755 750 746 743 742 745 748 750 753 756 758 761 763 764 766 767 767 768 769 770 772 772 772 772 771 770 770 769 770 770 769 770 770 769 770 770 769 770 769 770 770 768
752 752 746 745 744 743 744 746 749 751 751 753 753 755 757 760 761 761 762 764 766 768 768 769 770 770 770 770 771 771 771 770 770 770 770 769 769 769 769 770 771 771 770 768
749 747 744 742 742 743 745 746 746 747 749 749 751 751 751 754 756 758 759 761 763 763 764 765 766 767 768 769 769 769 768 769 769 769 770 770 769 769 770 770 769 770 769 768
747 739 739 740 739 738 740 740 739 739 742 744 744 745 749 751 752 753 754 756 757 758 759 760 761 762 763 763 764 765 766 767 768 768 768 768 768 769 769 769 769 768 768 768
740 735 734 732 731 733 734 734 735 736 736 734 737 741 743 745 744 746 748 751 753 753 754 755 757 759 760 760 760 761 762 763 764 766 767 768 769 769 770 769 768 766 766 766
734 731 730 730 729 728 728 727 727 727 729 731 734 735 734 735 737 740 742 743 745 746 747 749 751 753 755 757 757 758 760 761 762 764 765 767 767 767 766 766 765 764 762 762
735 731 728 728 726 726 724 723 723 723 722 724 726 728 730 731 733 734 735 735 735 738 741 743 745 748 749 751 753 754 757 759 762 763 763 764 764 764 763 763 762 761 761 760
735 733 731 729 726 724 722 721 720 717 716 719 721 720 719 720 723 726 729 730 728 732 735 738 741 743 746 749 751 753 756 757 758 758 759 760 760 759 759 759 759 758 758 757
732 730 729 728 726 722 719 717 716 715 714 714 714 713 713 714 717 719 719 720 722 726 729 732 736 739 742 745 747 749 750 751 751 752 754 755 755 755 754 754 754 753 752 751
728 725 722 720 718 715 712 711 710 708 707 706 705 705 705 705 707 712 714 714 719 722 725 728 730 733 736 739 741 744 745 745 746 747 749 750 751 751 750 749 748 748 748 746
722 719 716 713 711 709 707 699 699 698 697 696 696 697 699 701 702 703 705 708 711 716 719 722 724 727 731 733 735 737 737 740 741 743 744 744 744 744 745 743 743 742 744 743
717 715 713 711 710 706 700 695 695 693 691 689 687 686 687 689 692 694 700 704 707 710 714 718 722 724 723 725 727 730 732 734 735 737 738 739 740 740 739 738 739 738 739 739
712 710 709 706 702 698 695 694 693 690 688 686 682 681 682 684 688 691 693 698 702 705 708 711 713 716 719 721 723 725 726 728 730 732 733 734 735 735 736 734 735 735 735 734
703 702 698 694 690 689 687 687 686 682 680 679 678 678 679 679 682 685 690 692 694 698 702 704 707 710 714 716 719 720 721 722 723 724 727 729 730 731 733 731 730 732 730 729
Wind_Speed
6 5 2 3 5 5 1 4 3 4 8 11 14 14 16 15 20 20 21 20 17 17 16 22 24 27 29 29 22 7 10 5 8 16 15 18 22 26 27 27 22 27 29 25
4 6 4 4 8 7 4 4 4 5 3 3 9 9 16 18 19 21 22 21 20 19 19 19 24 24 27 31 38 37 30 25 8 5 4 13 10 28 17 21 17 20 26 19
4 3 5 7 6 6 2 4 2 2 2 6 10 11 13 14 16 16 17 17 18 17 19 26 28 29 28 30 34 33 28 26 27 30 28 28 26 33 29 29 25 21 19 20
3 4 2 5 0 2 4 7 6 4 3 6 5 4 8 11 11 13 15 16 16 18 24 28 29 31 29 34 35 36 37 36 35 36 30 37 43 38 35 34 31 29 24 23
2 2 7 2 4 4 4 5 6 5 3 3 3 2 3 9 9 10 12 14 16 19 21 23 27 24 27 33 32 36 33 35 33 34 38 36 35 33 30 36 34 32 28 26
2 0 3 4 3 3 3 4 7 6 5 2 3 2 2 3 4 7 11 14 18 20 20 24 25 23 28 28 31 30 29 30 33 35 36 35 33 33 31 33 32 30 28 26
4 4 7 6 5 4 3 4 5 6 5 5 4 3 3 2 1 4 7 12 17 20 21 21 22 26 29 25 26 25 29 32 34 34 33 31 32 31 30 30 30 30 29 27
2 2 7 6 4 6 4 1 5 5 5 5 5 5 3 3 1 3 5 10 13 16 17 19 21 24 21 23 21 23 26 27 25 27 26 24 25 26 27 27 27 25 24 25
8 6 3 7 3 5 4 4 5 5 5 7 7 6 6 5 5 4 2 4 7 10 13 17 19 20 21 16 17 20 23 22 23 23 24 23 21 20 18 19 19 18 18 18
2 4 10 7 5 4 6 5 5 4 7 8 7 7 6 5 4 5 6 5 4 6 9 11 13 15 14 11 13 17 20 20 18 18 18 17 20 19 18 16 15 16 15 13
6 9 4 10 10 8 8 6 6 5 7 8 7 6 6 5 5 8 7 6 4 4 5 6 7 8 9 9 9 14 16 17 18 19 17 15 15 13 14 16 13 11 10 9
6 6 2 6 4 12 11 11 10 9 6 7 8 8 7 6 13 13 12 10 8 7 5 4 2 3 5 6 8 9 12 13 14 15 14 15 16 16 14 13 12 10 9 9
5 3 4 7 7 7 12 10 10 11 9 9 11 13 14 7 16 16 15 14 12 10 8 6 4 3 3 4 5 7 9 9 10 11 12 13 14 13 12 11 10 10 10 11
9 3 7 6 6 7 7 9 16 15 16 15 17 17 16 14 11 15 16 14 10 9 9 8 6 4 2 2 3 4 5 6 7 8 9 9 9 9 9 10 9 10 10 10
9 9 10 5 4 4 5 6 8 8 8 8 18 19 18 13 14 19 16 14 12 11 10 10 8 6 4 4 4 4 4 5 6 7 6 7 7 6 6 5 5 5 8 7
12 8 8 10 8 5 7 7 8 10 8 9 13 17 23 24 19 16 16 16 17 16 14 12 9 6 6 5 4 2 2 3 3 4 4 3 4 4 3 3 4 5 6 7
5 6 5 6 9 8 9 9 12 11 10 11 19 23 21 18 13 13 16 17 17 13 12 12 9 7 5 6 5 4 3 3 2 1 2 3 3 4 4 4 4 4 5 6
9 12 8 6 6 8 8 10 12 13 11 24 23 22 19 17 14 20 21 18 16 14 14 12 10 8 7 6 6 5 3 2 1 2 3 4 4 5 6 6 6 6 7 7
10 7 7 8 8 6 6 7 16 22 19 22 20 20 26 25 24 22 18 18 17 16 15 11 10 10 9 8 7 5 5 4 4 5 6 7 7 8 8 8 8 8 8 9
8 9 9 10 12 10 8 15 16 17 23 24 25 19 18 25 25 20 19 22 23 14 8 7 8 7 6 6 6 7 7 7 9 9 9 10 9 9 8 9 9 9 9 9
7 10 8 9 11 17 18 20 17 17 20 21 21 20 23 27 28 24 19 11 19 15 12 10 10 9 9 9 10 11 12 12 12 11 11 11 10 10 10 10 10 10 10 10
6 4 7 11 11 15 19 20 21 23 20 20 23 24 22 22 23 25 25 20 18 14 15 17 16 14 13 13 14 14 14 13 12 10 10 11 11 11 11 11 11 11 10 9
11 8 11 11 11 16 20 20 20 20 23 24 24 24 25 24 25 16 10 27 21 17 17 17 17 17 16 16 15 14 13 13 11 10 11 11 12 12 13 12 12 11 10 9
15 17 16 17 15 14 9 20 17 21 24 26 27 29 25 20 23 27 23 16 20 23 22 20 19 18 17 16 14 16 14 13 12 12 13 12 12 11 12 12 12 10 10 9
20 21 21 19 10 10 20 26 20 23 21 24 27 27 28 30 26 29 27 20 18 20 19 17 16 16 16 16 16 17 14 14 12 11 12 12 12 12 12 10 10 8 9 9
17 14 16 20 22 23 20 19 14 19 20 17 21 26 25 25 26 20 26 26 24 22 20 19 19 18 16 16 17 16 15 15 14 14 14 13 12 11 9 8 8 7 8 8
18 18 17 17 20 20 21 21 16 19 19 19 18 20 25 25 26 23 22 25 26 24 21 19 17 16 15 16 16 14 12 11 10 8 8 9 8 7 7 6 5 7 7 7
Wind_Direction
252 251 286 267 286 309 319 242 226 318 318 332 346 357 352 346 355 7 12 13 9 8 12 12 14 28 34 22 349 225 213 278 237 251 256 255 225 220 223 226 238 244 204 199
277 237 240 264 266 264 243 262 277 305 307 328 323 2 4 0 355 1 5 8 12 13 13 15 24 32 41 33 39 57 51 47 110 183 168 199 172 193 166 189 182 126 152 168
264 5 307 288 226 210 257 233 230 326 305 324 329 7 15 360 355 357 0 4 8 9 13 18 21 28 31 37 50 54 58 68 81 82 70 63 72 84 100 101 105 107 121 130
276 354 282 258 313 175 231 259 211 257 276 299 303 352 39 19 358 354 356 0 6 7 14 18 26 32 38 41 43 45 46 50 54 62 59 63 67 68 74 85 86 86 89 87
275 248 288 273 228 187 180 289 182 191 222 281 334 72 44 26 19 6 1 2 9 12 14 23 29 27 42 47 47 46 42 44 45 59 65 63 64 70 76 85 83 82 81 76
186 220 247 258 161 139 106 285 162 179 210 195 133 53 276 12 4 12 10 10 10 20 30 34 27 32 48 45 46 44 43 51 58 62 65 67 71 74 76 77 80 80 77 71
203 254 281 228 163 160 144 244 158 171 179 179 163 190 152 105 44 40 36 39 48 44 39 38 43 50 47 41 44 53 60 62 64 65 65 68 71 72 75 77 77 72 71 66
129 239 296 154 79 166 214 134 161 159 159 161 143 152 168 169 115 53 35 49 51 55 49 49 54 58 54 50 56 62 65 64 65 65 64 63 66 67 68 70 68 65 66 62
188 218 254 224 179 202 179 173 199 163 164 155 156 188 187 190 188 166 142 89 66 64 59 52 52 56 59 50 58 64 66 65 64 66 67 62 60 59 55 55 58 54 51 46
352 248 225 235 231 230 197 213 202 195 171 169 175 178 187 187 200 197 199 164 115 84 69 56 52 54 59 53 56 63 63 62 64 65 64 64 64 63 60 53 53 54 50 46
267 275 304 258 226 213 212 208 186 189 190 192 177 190 187 203 209 209 202 189 171 118 92 72 59 57 57 59 59 66 69 67 68 69 69 72 71 65 73 68 63 62 55 50
225 257 231 261 231 189 187 196 198 176 188 202 191 193 189 212 213 209 206 201 200 194 177 163 139 91 70 67 66 69 70 64 62 67 68 72 79 80 77 74 70 73 65 56
265 333 250 289 301 209 193 190 188 189 191 185 207 198 198 207 210 210 207 202 205 209 206 195 189 166 117 89 79 78 81 77 76 73 69 65 59 58 58 58 53 50 50 44
240 248 270 203 253 215 198 189 192 199 201 201 200 203 204 207 209 210 214 218 216 213 211 208 208 211 173 119 92 89 92 91 90 86 82 76 71 67 61 49 38 33 41 40
237 216 241 303 278 233 193 154 179 200 199 206 206 201 202 201 207 211 214 211 209 210 213 210 215 219 202 186 176 161 154 135 120 110 93 77 76 77 72 60 53 33 23 23
292 261 248 221 255 242 203 198 199 209 199 206 202 206 209 212 215 208 202 198 191 206 214 216 223 232 216 208 204 183 112 104 103 100 95 78 63 53 47 42 29 7 359 357
286 299 221 239 220 218 214 218 216 214 207 203 210 213 211 209 206 205 207 209 214 219 209 208 215 203 204 207 208 207 189 169 161 68 15 9 355 342 338 329 320 317 319 328
254 265 266 238 214 218 226 224 225 222 213 218 217 213 207 199 209 213 215 210 209 216 219 219 217 220 224 236 244 236 227 219 248 289 299 286 287 283 276 276 279 287 304 309
308 281 269 269 260 250 245 229 224 231 232 227 214 207 212 214 216 219 206 201 209 221 238 226 232 232 236 243 244 240 233 232 247 257 261 267 266 269 274 278 284 288 291 298
341 340 310 298 289 264 265 267 261 243 241 231 225 217 216 225 226 217 207 210 221 227 230 230 222 241 254 255 257 252 244 241 249 251 252 258 266 273 280 282 283 283 284 290
342 342 333 320 304 299 284 283 280 260 258 239 218 219 219 227 225 216 207 218 236 230 232 229 227 232 235 237 231 228 230 232 238 243 251 258 265 269 276 275 277 282 283 285
314 315 312 320 308 296 302 293 280 273 271 260 246 233 224 224 223 219 226 225 240 229 218 221 224 225 224 220 217 218 225 230 234 240 249 260 266 272 281 281 283 287 282 288
293 289 300 296 284 290 299 290 280 267 261 256 244 234 224 226 216 192 219 227 221 211 208 209 210 209 209 206 210 219 225 229 231 240 252 260 269 274 282 285 286 284 284 293
274 277 277 287 289 283 274 285 275 264 255 256 254 252 234 219 223 225 228 229 215 211 211 211 208 205 202 207 216 225 226 232 238 251 257 261 265 271 277 277 274 275 280 288
275 277 287 287 282 276 278 285 285 274 264 257 253 246 240 232 221 225 210 204 192 188 190 190 195 198 203 212 218 221 226 232 239 248 255 261 266 266 267 265 266 269 278 291
287 283 284 286 277 277 278 288 270 279 270 256 253 249 237 228 221 220 206 201 197 197 202 203 202 207 211 214 217 218 227 238 238 240 247 251 256 261 254 258 264 276 284 294
285 284 278 279 281 280 276 268 262 267 263 244 247 251 236 217 205 198 195 193 194 196 197 199 201 202 208 212 221 223 223 221 219 221 230 238 242 249 254 254 268 277 283 296